Wind_Speed
16 15 14 13 13 12 12 11 10 10 9 10 10 10 10 10 10 11 11 11 10 10 9 9 9 8 8 7 7 7 6 6 7 7 8 9 9 9 9 9 9 9
17 16 15 14 14 14 13 12 12 11 10 9 9 9 9 9 10 10 11 11 11 10 10 10 9 8 8 7 7 7 6 6 6 6 7 7 8 8 9 9 9 9
17 17 17 16 16 16 15 13 13 12 12 11 10 10 9 10 10 10 11 12 12 11 11 10 10 9 8 8 7 7 7 7 6 6 6 6 7 7 8 9 9 8
18 18 18 18 18 17 16 15 15 14 14 13 12 11 10 10 10 11 11 12 12 12 12 11 10 10 9 9 8 8 7 7 7 6 6 6 7 7 8 8 8 8
20 20 19 19 19 18 17 17 17 16 16 15 14 13 12 11 11 11 11 12 12 12 12 12 11 11 10 10 9 9 8 8 8 7 7 7 7 7 8 8 8 8
22 21 21 20 19 19 18 18 18 18 17 16 16 15 13 13 12 12 12 12 12 13 13 12 12 11 11 11 10 10 9 9 8 8 8 8 8 8 8 8 8 8
23 23 23 22 21 20 20 20 20 19 18 18 17 16 15 14 14 13 13 13 13 13 13 13 12 12 12 12 11 11 10 10 9 9 9 9 9 8 8 9 9 9
24 25 25 24 23 22 22 22 21 21 20 19 19 18 16 16 15 14 14 14 14 14 14 14 14 13 13 13 13 12 11 11 10 10 10 9 9 9 9 10 10 10
25 25 26 25 24 24 24 23 23 23 22 21 21 20 18 17 16 15 15 15 15 15 15 15 15 14 14 14 14 13 13 12 11 11 10 10 9 9 9 9 10 10
25 25 26 26 26 26 26 25 25 24 24 23 22 21 20 19 18 17 17 16 16 16 16 16 15 15 15 15 15 15 14 13 13 12 11 10 10 9 9 8 9 9
25 25 25 26 28 29 29 28 27 26 25 25 24 23 22 21 20 19 18 18 18 17 16 16 16 16 15 15 16 16 16 16 15 14 13 12 12 11 9 9 9 8
25 25 25 26 27 29 30 30 29 28 27 26 25 24 24 23 22 21 21 20 20 19 18 17 16 16 16 16 16 17 17 17 17 16 16 15 14 13 12 11 11 10
25 24 24 26 27 28 29 31 31 30 29 28 27 27 26 25 25 24 24 23 22 21 20 19 18 17 17 17 17 17 18 18 18 18 18 17 17 16 16 15 14 13
26 26 26 27 29 29 29 30 31 31 30 29 28 27 27 27 27 27 26 25 24 23 22 21 20 20 19 18 18 18 18 18 18 19 19 19 19 18 18 18 17 17
29 31 31 30 31 31 31 31 31 32 32 31 29 28 28 28 28 28 28 26 25 25 24 23 22 22 22 21 20 19 19 19 18 18 18 19 19 19 19 19 19 19
34 35 34 33 33 33 32 32 32 32 33 34 33 31 29 29 29 28 28 27 26 26 25 24 23 23 24 23 23 21 21 20 19 18 18 18 19 19 19 20 20 20
38 38 37 37 36 36 34 33 33 33 34 36 36 34 32 30 29 28 27 27 27 26 25 24 24 24 25 25 24 24 23 22 21 20 19 19 18 19 19 19 20 20
37 40 41 40 39 38 37 35 34 34 34 36 37 36 34 32 30 29 28 28 27 26 25 25 25 25 25 25 25 25 25 24 24 23 22 21 20 19 19 19 19 20
33 38 42 42 40 40 40 38 35 35 35 35 36 37 36 34 33 31 29 29 28 27 26 25 26 26 26 25 25 25 26 25 25 25 25 24 23 22 21 21 21 21
26 30 37 42 42 42 42 39 36 36 36 35 35 36 37 37 35 32 31 31 30 29 27 27 27 27 27 27 26 26 27 26 26 26 26 26 26 25 25 24 24 24
18 21 27 34 39 40 41 41 39 37 36 34 34 35 36 37 36 33 33 33 32 31 29 28 28 29 29 28 28 27 27 27 27 27 27 28 27 27 27 27 27 26
14 14 16 22 27 31 35 39 38 35 34 33 33 33 34 34 34 34 34 33 33 33 32 31 31 31 30 30 29 28 28 27 27 27 28 28 29 29 29 29 29 28
17 15 13 13 15 19 25 29 32 32 33 34 34 34 34 33 33 35 34 34 34 35 34 33 33 32 32 31 31 30 29 27 27 27 28 28 29 30 31 30 31 30
22 20 17 13 11 11 12 16 21 27 32 35 36 35 35 35 36 36 35 34 34 34 34 34 35 34 34 33 33 32 31 29 28 28 28 28 29 30 31 31 31 32
24 25 24 21 18 14 11 11 13 16 23 30 35 37 37 36 36 36 36 36 35 33 33 33 34 35 35 35 34 34 32 31 30 29 29 29 30 30 30 30 31 31
25 26 26 26 24 21 19 19 18 15 15 16 22 28 33 35 37 37 37 37 35 34 33 33 33 35 36 35 35 34 34 32 31 31 30 31 31 31 31 31 31 32
Wind_Direction
211 211 211 214 215 217 218 219 219 217 214 208 202 202 201 197 195 191 186 182 181 180 181 184 186 187 188 188 188 189 191 189 186 185 185 187 189 192 192 190 188 187
214 212 211 213 216 219 221 222 226 227 228 225 218 214 212 209 206 201 193 190 187 184 186 189 189 190 192 193 192 194 198 200 197 196 196 195 195 197 198 199 197 195
217 215 213 212 214 217 220 221 225 230 233 233 231 227 222 219 218 212 203 197 193 189 191 194 193 191 195 197 197 199 203 206 206 206 207 206 207 209 209 208 206 203
218 217 216 215 215 216 218 219 222 228 233 236 237 236 234 229 226 222 214 206 201 196 196 200 199 195 197 201 202 204 207 208 207 209 213 214 215 217 218 218 218 216
218 218 217 217 217 217 218 219 221 224 230 236 238 238 239 239 236 231 224 218 212 207 204 204 204 201 202 205 207 208 208 207 206 209 213 216 219 221 224 226 228 228
219 219 219 218 217 217 219 221 222 223 226 231 236 237 239 241 242 238 232 227 222 219 216 213 211 209 208 209 211 212 210 207 205 208 211 214 219 223 226 230 233 235
221 221 219 217 216 216 218 221 223 225 225 227 231 235 236 238 240 241 238 234 230 227 225 224 223 222 219 216 217 216 214 211 209 209 210 211 214 219 223 227 233 236
221 222 221 218 215 214 216 219 222 224 225 225 227 229 232 234 235 238 239 238 235 232 230 230 230 231 230 227 226 224 220 216 215 213 212 211 213 217 220 225 230 234
218 221 222 220 217 215 215 216 219 222 224 225 225 224 225 228 230 232 236 239 239 237 234 233 233 234 235 234 233 232 229 225 222 219 217 217 218 218 220 226 230 233
220 221 222 221 219 218 217 216 216 219 221 224 224 223 221 222 224 226 229 234 238 239 237 235 234 235 236 237 237 237 235 232 229 226 224 224 226 226 224 226 230 234
223 223 224 223 221 220 219 218 216 216 219 221 222 222 221 220 221 222 224 227 231 236 238 238 236 235 236 237 238 238 238 236 234 233 231 230 231 232 231 231 231 235
226 225 226 226 225 224 223 221 219 217 217 219 220 221 220 218 219 220 221 223 225 228 233 236 237 237 236 236 238 239 239 239 238 237 237 237 236 236 235 236 235 236
230 228 228 229 229 229 229 228 226 223 220 219 220 219 218 217 218 219 221 221 221 222 226 230 233 235 236 236 238 240 241 241 240 240 240 240 241 240 240 240 240 240
232 230 227 228 228 228 229 229 229 228 227 226 224 222 220 218 218 219 220 221 221 221 223 226 229 232 234 234 235 239 243 245 245 244 244 244 244 245 244 244 244 244
232 232 228 228 228 226 226 227 227 227 228 230 230 228 225 223 221 221 222 222 223 223 223 224 227 231 234 235 235 235 239 244 248 250 250 250 249 249 249 250 250 250
234 234 231 229 230 229 227 225 225 224 225 226 228 229 229 228 225 224 224 225 225 225 225 224 226 230 234 237 238 238 238 240 244 248 252 254 255 255 255 256 257 257
238 237 233 229 230 232 231 227 225 224 224 225 225 226 228 230 230 229 227 227 227 228 228 227 228 230 234 237 241 242 242 242 243 244 248 251 255 257 258 259 260 261
242 240 235 230 229 232 233 231 227 225 225 225 225 225 226 228 230 231 231 230 230 230 231 231 231 232 234 237 241 244 245 246 247 247 247 248 250 253 256 258 260 260
247 242 236 232 231 231 232 232 231 229 226 224 224 225 226 228 229 230 232 232 233 232 233 234 236 236 236 237 240 243 245 246 248 250 250 250 250 251 252 253 254 256
251 244 236 233 233 233 233 233 234 233 230 225 222 223 226 228 229 230 233 234 234 233 233 235 238 240 240 239 240 243 244 245 247 249 251 251 251 251 251 252 253 254
259 251 240 235 234 235 234 235 235 234 230 226 223 222 225 228 230 231 233 235 235 235 234 235 237 240 242 242 242 244 245 246 248 250 252 253 254 253 253 253 254 255
269 262 245 237 236 237 238 237 236 235 232 228 226 225 225 227 230 231 234 238 239 238 237 236 238 240 242 244 244 246 247 249 251 252 253 255 256 257 256 256 256 257
268 265 249 237 234 237 240 239 235 233 232 229 227 227 227 228 230 231 233 237 240 240 239 239 240 241 243 245 246 247 248 250 252 254 255 256 258 259 259 259 260 260
254 253 246 237 232 234 244 246 239 235 233 230 227 227 228 230 230 230 232 234 236 237 239 240 242 243 243 244 245 246 248 249 250 253 256 258 259 260 261 262 263 264
246 246 245 246 249 253 266 273 260 243 237 234 231 229 229 229 229 228 229 231 233 234 235 238 242 244 244 244 244 245 246 247 249 251 254 257 259 261 263 265 265 266
250 248 249 252 258 265 272 274 267 255 247 244 240 235 232 231 230 230 231 233 233 232 231 232 236 241 243 245 245 246 246 246 247 250 252 255 257 260 262 264 265 265
Height
5945 5946 5947 5948 5949 5950 5950 5951 5951 5952 5952 5953 5953 5954 5954 5955 5955 5956 5956 5957 5957 5957 5958 5958 5959 5960 5960 5960 5961 5961 5962 5963 5963 5963 5964 5964 5964 5965 5965 5965 5965 5965
5944 5945 5946 5947 5948 5949 5950 5951 5951 5952 5952 5953 5953 5954 5954 5955 5956 5956 5956 5957 5957 5957 5958 5958 5959 5959 5960 5960 5960 5961 5962 5962 5963 5963 5963 5964 5964 5965 5965 5965 5965 5965
5943 5944 5945 5946 5947 5948 5949 5950 5951 5952 5952 5953 5953 5954 5955 5956 5956 5957 5957 5957 5957 5958 5958 5958 5959 5959 5959 5960 5960 5961 5961 5962 5962 5963 5963 5964 5964 5965 5965 5965 5965 5965
5942 5943 5944 5945 5946 5947 5948 5949 5950 5951 5952 5952 5953 5954 5955 5956 5956 5957 5957 5957 5957 5958 5958 5958 5959 5959 5959 5959 5960 5960 5961 5961 5962 5962 5963 5964 5964 5965 5965 5965 5965 5966
5940 5942 5943 5944 5945 5946 5947 5948 5949 5950 5951 5952 5953 5954 5955 5956 5956 5957 5957 5957 5957 5958 5958 5958 5959 5959 5959 5959 5960 5960 5960 5961 5961 5962 5963 5963 5964 5965 5965 5965 5966 5966
5939 5940 5941 5943 5944 5946 5946 5947 5948 5949 5950 5951 5952 5953 5954 5955 5956 5956 5957 5957 5957 5958 5958 5958 5958 5959 5959 5959 5959 5959 5959 5960 5960 5961 5961 5962 5963 5964 5964 5965 5965 5966
5937 5938 5940 5941 5943 5944 5945 5946 5947 5948 5949 5950 5951 5952 5953 5954 5955 5956 5956 5957 5957 5958 5958 5958 5958 5959 5959 5959 5959 5959 5959 5959 5959 5960 5960 5961 5961 5962 5963 5963 5964 5965
5935 5936 5937 5939 5941 5942 5943 5945 5946 5947 5948 5949 5950 5951 5952 5953 5954 5955 5956 5956 5957 5957 5958 5958 5958 5959 5959 5959 5959 5960 5959 5959 5959 5959 5959 5959 5960 5961 5961 5962 5963 5964
5932 5933 5935 5937 5939 5940 5941 5942 5944 5945 5946 5947 5948 5949 5950 5951 5952 5953 5954 5955 5956 5956 5957 5957 5958 5958 5959 5959 5959 5960 5960 5959 5959 5959 5959 5959 5959 5959 5960 5961 5962 5962
5929 5931 5933 5934 5936 5938 5939 5940 5941 5943 5944 5945 5946 5947 5948 5949 5950 5951 5952 5953 5954 5955 5956 5956 5957 5957 5958 5958 5959 5959 5959 5959 5959 5959 5959 5959 5959 5959 5959 5960 5960 5961
5927 5928 5930 5932 5933 5934 5936 5937 5938 5940 5941 5942 5944 5945 5946 5946 5947 5948 5949 5950 5951 5953 5954 5954 5955 5956 5956 5957 5958 5958 5958 5959 5959 5959 5959 5959 5959 5959 5959 5959 5959 5960
5924 5926 5928 5930 5931 5932 5933 5934 5935 5937 5938 5939 5941 5942 5942 5944 5944 5945 5946 5947 5948 5950 5951 5952 5953 5954 5955 5955 5956 5957 5957 5957 5958 5958 5958 5959 5959 5958 5958 5958 5959 5959
5923 5925 5927 5928 5929 5930 5931 5932 5933 5934 5936 5937 5937 5938 5939 5940 5941 5942 5942 5943 5945 5946 5948 5949 5951 5951 5952 5953 5954 5955 5955 5956 5956 5957 5957 5958 5958 5958 5958 5958 5958 5958
5921 5921 5922 5924 5925 5926 5927 5929 5931 5932 5934 5934 5935 5936 5937 5937 5938 5938 5939 5941 5942 5943 5945 5946 5948 5949 5950 5950 5951 5952 5953 5954 5955 5955 5956 5956 5957 5957 5957 5957 5957 5958
5917 5916 5918 5920 5921 5922 5923 5924 5926 5928 5930 5931 5933 5934 5934 5935 5935 5936 5937 5938 5940 5941 5942 5943 5945 5946 5947 5948 5948 5949 5951 5952 5953 5954 5954 5955 5955 5956 5956 5956 5957 5957
5912 5912 5914 5917 5918 5919 5920 5920 5921 5922 5924 5926 5928 5930 5932 5932 5933 5933 5934 5936 5937 5938 5940 5941 5942 5943 5944 5945 5946 5947 5948 5949 5950 5951 5952 5953 5954 5954 5955 5955 5956 5956
5907 5909 5910 5912 5914 5916 5917 5917 5918 5919 5920 5920 5922 5925 5927 5930 5932 5933 5933 5934 5935 5936 5937 5939 5940 5940 5941 5943 5944 5945 5946 5947 5948 5948 5949 5950 5951 5952 5953 5953 5954 5955
5903 5904 5905 5907 5909 5911 5912 5913 5915 5916 5916 5917 5919 5922 5924 5926 5929 5931 5932 5933 5934 5935 5936 5937 5937 5937 5938 5940 5941 5943 5944 5945 5946 5946 5947 5948 5948 5949 5950 5951 5952 5952
5899 5899 5900 5902 5904 5906 5907 5909 5911 5913 5914 5915 5917 5920 5922 5923 5925 5927 5929 5931 5932 5933 5934 5935 5935 5935 5936 5936 5938 5939 5941 5942 5943 5944 5945 5946 5946 5947 5947 5948 5948 5949
5894 5894 5895 5897 5900 5902 5903 5905 5907 5909 5911 5912 5914 5917 5919 5920 5921 5924 5926 5927 5929 5930 5931 5932 5933 5933 5934 5934 5935 5936 5937 5938 5940 5941 5942 5943 5944 5944 5944 5945 5945 5946
5891 5891 5892 5894 5897 5899 5900 5901 5903 5905 5908 5910 5912 5913 5915 5916 5918 5920 5922 5924 5926 5927 5928 5928 5929 5930 5931 5932 5932 5933 5934 5936 5937 5938 5938 5940 5941 5941 5942 5942 5943 5943
5889 5889 5890 5891 5894 5896 5897 5898 5900 5903 5906 5908 5910 5911 5912 5914 5916 5917 5918 5921 5923 5924 5925 5926 5926 5927 5928 5929 5930 5930 5932 5933 5934 5935 5936 5936 5937 5938 5939 5939 5940 5940
5888 5889 5890 5890 5891 5893 5894 5895 5898 5901 5902 5903 5906 5908 5909 5910 5911 5912 5913 5915 5918 5920 5922 5923 5923 5925 5926 5927 5928 5928 5929 5931 5932 5933 5933 5934 5934 5935 5935 5936 5937 5937
5888 5889 5890 5890 5890 5890 5891 5893 5895 5896 5897 5899 5901 5903 5904 5906 5907 5908 5909 5911 5914 5916 5918 5919 5920 5921 5923 5924 5924 5925 5926 5927 5929 5930 5931 5932 5932 5932 5933 5933 5934 5934
5885 5886 5887 5888 5888 5888 5889 5890 5892 5893 5894 5895 5897 5898 5900 5901 5903 5904 5906 5908 5910 5912 5913 5915 5916 5917 5918 5919 5920 5921 5922 5923 5925 5926 5928 5928 5929 5929 5930 5931 5931 5931
5883 5884 5885 5885 5886 5886 5888 5889 5890 5891 5891 5892 5893 5895 5896 5898 5899 5901 5902 5904 5906 5908 5909 5910 5911 5911 5913 5915 5916 5917 5918 5919 5921 5922 5924 5924 5925 5926 5927 5927 5927 5927